This is the latest recevied weather packets stored in our database for station/object KV4OP. If no packets are shown the sender has not sent any weather packets the latest 10 day(s).
| Time | Temp. | Humidity | Pressure | Rain* | Wind** | Luminosity | Snow |
|---|---|---|---|---|---|---|---|
| 1778088919 | 32.22° C | 48% | 1017.2 hPa | 0 mm | - | - | - |
| 1778088619 | 32.22° C | 52% | 1017.2 hPa | 0 mm | - | - | - |
| 1778088318 | 31.11° C | 52% | 1017.3 hPa | 0 mm | - | - | - |
| 1778088018 | 32.22° C | 50% | 1017.2 hPa | 0 mm | - | - | - |
| 1778087718 | 31.67° C | 49% | 1017.3 hPa | 0 mm | - | - | - |
| 1778087416 | 31.11° C | 50% | 1017.2 hPa | 0 mm | - | - | - |
| 1778087118 | 31.11° C | 53% | 1017.4 hPa | 0 mm | - | - | - |
| 1778086816 | 30.56° C | 49% | 1017.4 hPa | 0 mm | - | - | - |
| 1778086515 | 31.11° C | 51% | 1017.5 hPa | 0 mm | - | - | - |
| 1778086215 | 30.56° C | 52% | 1017.6 hPa | 0 mm | - | - | - |
| 1778085918 | 30.56° C | 53% | 1017.6 hPa | 0 mm | - | - | - |
| 1778085614 | 30.56° C | 53% | 1017.7 hPa | 0 mm | - | - | - |
| 1778085316 | 30.56° C | 54% | 1017.8 hPa | 0 mm | - | - | - |
| 1778085015 | 30.56° C | 52% | 1017.7 hPa | 0 mm | - | - | - |
| 1778084712 | 30.56° C | 54% | 1017.8 hPa | 0 mm | - | - | - |
| 1778084414 | 30.56° C | 52% | 1017.8 hPa | 0 mm | - | - | - |
| 1778084113 | 30.56° C | 54% | 1017.8 hPa | 0 mm | - | - | - |
| 1778083811 | 30° C | 57% | 1017.8 hPa | 0 mm | - | - | - |
| 1778083511 | 30° C | 58% | 1017.8 hPa | 0 mm | - | - | - |
| 1778083211 | 30° C | 55% | 1017.7 hPa | 0 mm | - | - | - |
| 1778082910 | 30° C | 55% | 1017.9 hPa | 0 mm | - | - | - |
| 1778082611 | 30° C | 56% | 1017.8 hPa | 0 mm | - | - | - |
| 1778082310 | 30° C | 54% | 1017.9 hPa | 0 mm | - | - | - |
| 1778082009 | 30.56° C | 54% | 1017.9 hPa | 0 mm | - | - | - |
| 1778081708 | 30° C | 57% | 1017.9 hPa | 0 mm | - | - | - |
* Rain latest hour (hover to see other rain measurements)
** Current wind speed in m/s (hover to see current wind gust speed)